GJZ 02 (62291 NORAD) Tracking and Keplerian Element Data

This shows tracking and keplerian element data for the satellite.

Feedback or suggestion? Click here.




ElementValue
Catalog62291
NameGJZ 02
Epoch Orbit755
Epoch Day34.37985822
Epoch Year2025
RAAN326.7373
Inclination59.8979
Eccentricity0.0038006
Argument of Perigee3.7243
Mean Anonmoly356.4061
Mean Motion14.19385178
Decay Rate1.58E-06
L11 62291U 24238B 25034.37985822 .00000158 00000+0 13735-3 0 9992
L22 62291 59.8979 326.7373 0038006 3.7243 356.4061 14.19385178 7555



Live tracking and technical data element details for GJZ 02 (NORAD 62291). GJZ 02 can be tracked NOW for your location showing map with azimuth and elevation plus other details from your city location.







IsCatalogInMostPopularTable: catalog: 62291, numindb: 9
Update: records affected: 1



GetName: 62291 GJZ 02

Hit Count: updated at: Sun, 18 May 2025 22:42:41 GMT